Location: McKinley Crossing
(64.8808°N, 149.6453°W)
Time: 17:16:22
(UTC+00:00)

DIWATA 2B (PO-101) - Visible Passes

Search period start: 16 April 2021 00:00
Search period end: 26 April 2021 00:00
Orbit: 586 x 598 km, 97.9° (Epoch: 16 April)

Date Brightness Start Highest point End Pass type
(mag) Time Alt. Az. Time Alt. Az. Time Alt. Az.
16 Apr ? 08:26:46 10° E 08:29:49 20° NE 08:32:52 10° N visible
16 Apr ? 10:01:31 16° SE 10:04:43 58° ENE 10:08:54 10° NNW visible
16 Apr ? 11:38:07 19° SSW 11:40:32 35° W 11:44:27 10° NNW visible
17 Apr ? 07:03:31 10° NNE 07:04:13 10° NNE 07:04:56 10° N visible
17 Apr ? 08:35:18 10° E 08:38:30 21° NE 08:41:42 10° N visible
17 Apr ? 10:10:17 17° SE 10:13:29 65° ENE 10:17:42 10° NNW visible
17 Apr ? 11:46:52 17° SW 11:49:23 31° W 11:53:11 10° NNW visible
18 Apr ? 07:11:46 10° NE 07:12:52 11° NNE 07:13:59 10° N visible
18 Apr ? 08:43:51 10° E 08:47:12 23° NE 08:50:32 10° N visible
18 Apr ? 10:19:03 17° SSE 10:22:15 74° ENE 10:26:30 10° NNW visible
18 Apr ? 11:55:38 15° SW 11:58:15 27° W 12:01:54 10° NNW visible
19 Apr ? 07:20:06 10° NE 07:21:31 11° NNE 07:22:56 10° N visible
19 Apr ? 08:52:26 10° ESE 08:55:54 25° NE 08:59:22 10° N visible
19 Apr ? 10:27:49 17° SSE 10:31:03 83° ENE 10:35:18 10° NNW visible
19 Apr ? 12:04:24 14° SW 12:07:07 24° W 12:10:36 10° NW visible
20 Apr ? 07:28:29 10° NE 07:30:10 12° NNE 07:31:51 10° N visible
20 Apr ? 09:01:02 10° ESE 09:04:37 27° NE 09:08:12 10° N visible
20 Apr ? 10:36:35 17° SSE 10:39:49 87° WSW 10:44:06 10° NNW visible
20 Apr ? 12:13:10 12° SW 12:16:00 21° W 12:19:18 10° NW visible
21 Apr ? 07:36:54 10° NE 07:38:49 13° NNE 07:40:45 10° N visible
21 Apr ? 09:09:38 10° ESE 09:13:20 30° NE 09:17:02 10° N visible
21 Apr ? 10:45:21 17° SSE 10:48:37 77° WSW 10:52:53 10° NNW visible
21 Apr ? 12:21:56 10° SW 12:24:53 19° W 12:27:57 10° NW visible
22 Apr ? 07:45:21 10° ENE 07:47:29 14° NNE 07:49:37 10° N visible
22 Apr ? 09:18:15 10° ESE 09:22:03 33° NE 09:25:52 10° N visible
22 Apr ? 10:54:07 16° S 10:57:25 67° WSW 11:01:40 10° NNW visible
22 Apr ? 12:31:00 10° SW 12:33:47 17° W 12:36:35 10° NW visible
23 Apr ? 07:53:48 10° ENE 07:56:09 15° NNE 07:58:29 10° N visible
23 Apr ? 09:26:53 10° ESE 09:30:47 37° NE 09:34:41 10° NNW visible
23 Apr ? 11:02:53 15° S 11:06:14 59° WSW 11:10:26 10° NNW visible
23 Apr ? 12:40:14 10° WSW 12:42:42 15° W 12:45:10 10° NW visible
24 Apr ? 08:02:16 10° ENE 08:04:48 16° NE 08:07:21 10° N visible
24 Apr ? 09:35:32 10° SE 09:39:31 41° NE 09:43:30 10° NNW visible
24 Apr ? 11:11:39 15° S 11:15:04 51° WSW 11:19:13 10° NNW visible
25 Apr ? 08:10:46 10° ENE 08:13:29 17° NE 08:16:12 10° N visible
25 Apr ? 09:44:13 10° SE 09:48:15 45° ENE 09:52:18 10° NNW visible
25 Apr ? 11:20:25 14° S 11:23:53 45° W 11:27:58 10° NNW visible
